Fort Campbell, KY

1:42 AM CDT on April 27, 2018 (GMT -0500)
Campbell Army Air Field

Weather History for KHOP - June, 2013

Change the Weather History Date:

Monday, June 3, 2013

  Actual Average Record
Temperature  
Mean Temperature 67 °F -  
Max Temperature 75 °F 79 °F 93 °F (1998)
Min Temperature 59 °F 60 °F 53 °F (2001)
Cooling Degree Days 2    
Growing Degree Days 17 (Base 50)    
Moisture  
Dew Point 60 °F    
Average Humidity 82    
Maximum Humidity 100    
Minimum Humidity 51    
Precipitation  
Precipitation 0.00 in - - ()
Sea Level Pressure  
Sea Level Pressure 30.01 in    
Wind  
Wind Speed 5 mph (North)    
Max Wind Speed 12 mph    
Max Gust Speed 17 mph    
Visibility 10 miles    
Events      
Averages and records for this station are not official NWS values.
T = Trace of Precipitation, MM = Missing Value Source: NWS Daily Summary

Daily Weather History Graph

Daily Weather History Graph

Search for Another Location

Airport or City:

Astronomy

Jun. 03, 2013 Rise Set
Actual Time 5:32 AM CDT 8:04 PM CDT
Civil Twilight 5:01 AM CDT 8:34 PM CDT
Nautical Twilight 4:24 AM CDT 9:12 PM CDT
Astronomical Twilight 3:43 AM CDT 9:53 PM CDT
Moon 2:22 AM CDT (6/3) 3:40 PM CDT (6/3)
Length of Visible Light 15h 32m
Length of Day
14h 32m
Waning Crescent, 22% of the Moon is Illuminated
Jun 3
Waning Crescent
Jun 8
New
Jun 16
First Quarter
Jun 23
Full
Jun 29
Last Quarter

Hourly Weather History & Observations

Time (CDT) Temp. Dew Point Humidity Pressure Visibility Wind Dir Wind Speed Gust Speed Precip Events Conditions
12:58 AM 62.8 °F 62.8 °F 100% 29.97 in 10.0 mi NNW 3.5 mph - N/A   Clear
1:58 AM 61.5 °F 61.5 °F 100% 29.97 in 10.0 mi North 4.6 mph - N/A   Clear
2:58 AM 59.9 °F 59.9 °F 100% 29.97 in 10.0 mi NNE 4.6 mph - N/A   Partly Cloudy
3:58 AM 59.0 °F 59.0 °F 100% 29.97 in 10.0 mi North 5.8 mph - N/A   Clear
4:58 AM 59.0 °F 59.0 °F 100% 29.98 in 10.0 mi North 3.5 mph - N/A   Clear
5:58 AM 59.0 °F 59.0 °F 100% 30.00 in 10.0 mi NNW 4.6 mph - N/A   Clear
6:58 AM 60.8 °F 60.8 °F 100% 30.01 in 10.0 mi North 6.9 mph - N/A   Clear
7:58 AM 64.2 °F 64.2 °F 100% 30.03 in 10.0 mi North 6.9 mph - N/A   Clear
8:58 AM 65.5 °F 65.5 °F 100% 30.05 in 10.0 mi North 6.9 mph - N/A   Overcast
9:58 AM 68.4 °F 66.0 °F 92% 30.05 in 10.0 mi NNE 8.1 mph - N/A   Overcast
10:39 AM 69.8 °F 62.6 °F 78% 30.04 in 10.0 mi NNE 5.8 mph - N/A   Mostly Cloudy
10:42 AM 69.8 °F 64.4 °F 83% 30.04 in 10.0 mi NE 5.8 mph - N/A   Scattered Clouds
10:58 AM 70.9 °F 63.1 °F 76% 30.04 in 10.0 mi NNE 6.9 mph - N/A   Partly Cloudy
11:58 AM 72.1 °F 59.7 °F 65% 30.02 in 10.0 mi Variable 2.3 mph - N/A   Mostly Cloudy
12:58 PM 72.5 °F 57.7 °F 60% 30.01 in 10.0 mi Variable 2.3 mph - N/A   Mostly Cloudy
1:58 PM 74.3 °F 55.4 °F 52% 30.00 in 10.0 mi NW 11.5 mph - N/A   Mostly Cloudy
2:58 PM 74.3 °F 56.8 °F 54% 30.00 in 10.0 mi NNW 8.1 mph - N/A   Partly Cloudy
3:58 PM 75.0 °F 57.2 °F 54% 29.98 in 10.0 mi North 9.2 mph - N/A   Scattered Clouds
4:58 PM 74.7 °F 55.4 °F 51% 29.97 in 10.0 mi North 3.5 mph - N/A   Partly Cloudy
5:58 PM 74.5 °F 57.4 °F 55% 29.96 in 10.0 mi Variable 5.8 mph - N/A   Clear
6:58 PM 72.1 °F 57.0 °F 59% 29.98 in 10.0 mi North 4.6 mph - N/A   Clear
7:58 PM 66.9 °F 60.1 °F 79% 29.99 in 10.0 mi North 5.8 mph - N/A   Clear
8:58 PM 63.3 °F 60.4 °F 90% 30.00 in 10.0 mi NNE 5.8 mph 17.3 mph N/A   Clear
9:58 PM 62.2 °F 60.6 °F 94% 30.03 in 10.0 mi NNE 5.8 mph - N/A   Clear
10:58 PM 60.4 °F 60.3 °F 99% 30.04 in 10.0 mi NE 4.6 mph - N/A   Clear
11:58 PM 59.5 °F 59.5 °F 100% 30.04 in 10.0 mi NE 4.6 mph - N/A   Clear